STARLINK-1155 (45053 NORAD) Tracking and Keplerian Element Data

This shows tracking and keplerian element data for the satellite.

Feedback or suggestion? Click here.




ElementValue
Catalog45053
NameSTARLINK-1155
Epoch Orbit176
Epoch Day87.91667824
Epoch Year2020
RAAN320.2465
Inclination53.0012
Eccentricity0.0001576
Argument of Perigee86.6323
Mean Anonmoly280.9232
Mean Motion15.03951203
Decay Rate-0.00013635
L11 45053U 20006K 20087.91667824 -.00013635 00000-0 -95966-3 0 9993
L22 45053 53.0012 320.2465 0001576 86.6323 280.9232 15.03951203 1768

Live tracking and technical data element details for STARLINK-1155 (NORAD 45053). STARLINK-1155 can be tracked NOW for your location showing map with azimuth and elevation plus other details from your city location.

Track the satellite on the map from your city or location and see movement details for azimuth, elevation, latitude, longitude, range, height, and movement on the map or in text.







IsCatalogInMostPopularTable: catalog: 45053, numindb: 9
Update: records affected: 1



GetName: 45053 STARLINK-1155

Hit Count: updated at: Sat, 28 Mar 2020 21:20:14 GMT